Regional Weather Roundup
Issued by NWS

Home | Current Version | Previous Version | Text Only | Print | Product List | Glossary On
Versions: 1 2 3 4 5 6 7 8 9 10 11 12 13 14 15 16 17 18 19 20 21 22 23 24 25 26 27 28 29 30 31 32 33 34 35 36 37 38 39 40 41 42 43 44 45 46 47 48 49 50
000
ASUS42 KKEY 291210
RWRKEY

FLORIDA REGIONAL WEATHER ROUNDUP FOR THE FLORIDA KEYS
NATIONAL WEATHER SERVICE KEY WEST FLORIDA
800 AM EDT SUN MAR 29 2015

...SOUTH FLORIDA AND THE KEYS...

CITY           SKY/WX    TMP DP  RH WIND       PRES   REMARKS
FORT MYERS     CLEAR     55  43  63 N10       30.28R
SW REGIONAL AP CLEAR     54  43  66 N6        30.29R
NAPLES         CLEAR     56  44  64 N8        30.27R
MIAMI          MOCLDY    58  47  66 VRB6      30.26R
WEST KENDALL   PTCLDY    56  49  77 N9        30.26R
HOMESTEAD      PTCLDY    55  49  79 NW6       30.25R
MARATHON       PTCLDY    62  48  60 NE14      30.25R
BOCA CHICA NAS MOCLDY    67  51  56 NE13      30.23R
KEY WEST INTL  PTCLDY    67  52  58 N10       30.23R

...INTERNATIONAL WEATHER...

CITY           SKY/WX    TMP DP  RH WIND       PRES   REMARKS
NASSAU BAHAMAS CLOUDY    70  61  73 N12       30.23R
CANCUN MEXICO  MOCLDY    75  64  69 NE14      30.14R
COZUMEL MEXICO MOCLDY    72  66  83 E14       30.12S

ADJACENT COASTAL WATERS...

STATION/POSITION TIME  SKY/WX   TEMP    WIND        PRES    WAVE
                                AIR SEA DIR/SP/G            HT/PER
                 (UTC)          (F)     (DEG/KT/KT) (MB)    (FT/S)
PULASKI SHOAL LI 1100            69      30/ 16/ 19 1023.3R
SAND KEY         1150            69      40/ 18/ 20 1023.4R
SOMBRERO KEY     1200            63      20/ 18/ 19 1024.2R
LONG KEY         1200            61 72   30/ 16/ 19 1025.3R
MOLASSES REEF    1200            62 75   10/ 16/ 17 1023.9R
FOWEY ROCKS      NOT AVBL

$$



USA.gov is the U.S. government's official web portal to all federal, state and local government web resources and services.